• In Slovakia
  • List of Countries
  • For 7 days
  • Water Temperature
  • Satellite Maps
  • Weather Map
  • Weather Widgets
  • user-avatar
    Login

    Hourly Weather Bonn

    Today, 24 February, Saturday

    Time Temperature Precipitation Wind Pressure Humidity
    00:00 -5°C° 0 mm 3 mps 759 mmHg 40%
    01:00 -5°C° 0 mm 3 mps 759 mmHg 39%
    02:00 -5°C° 0 mm 4 mps 759 mmHg 37%
    03:00 -5°C° 0 mm 4 mps 759 mmHg 36%
    04:00 -5°C° 0 mm 4 mps 760 mmHg 36%
    05:00 -5°C° 0 mm 4 mps 760 mmHg 36%
    06:00 -7°C° 0 mm 5 mps 760 mmHg 33%
    07:00 -5°C° 0 mm 5 mps 760 mmHg 32%
    08:00 -4°C° 0 mm 6 mps 761 mmHg 31%
    09:00 -2°C° 0 mm 6 mps 761 mmHg 30%
    10:00 -1°C° 0 mm 6 mps 761 mmHg 32%
    11:00 +1°C° 0 mm 6 mps 761 mmHg 34%
    12:00 +1°C° 0 mm 6 mps 761 mmHg 36%
    13:00 +1°C° 0 mm 6 mps 761 mmHg 39%
    14:00 +1°C° 0 mm 6 mps 761 mmHg 41%
    15:00 +1°C° 0 mm 6 mps 761 mmHg 44%
    16:00 -1°C° 0 mm 6 mps 761 mmHg 46%
    17:00 -1°C° 0 mm 5 mps 761 mmHg 49%
    18:00 -4°C° 0 mm 5 mps 762 mmHg 51%
    19:00 -4°C° 0 mm 5 mps 762 mmHg 49%
    20:00 -5°C° 0 mm 5 mps 762 mmHg 48%
    21:00 -5°C° 0 mm 5 mps 763 mmHg 46%
    22:00 -5°C° 0 mm 5 mps 763 mmHg 46%
    23:00 -6°C° 0 mm 5 mps 763 mmHg 46%

    Tomorrow, 25 February, Sunday

    Time Temperature Precipitation Wind Pressure Humidity
    00:00 -6°C° 0 mm 5 mps 763 mmHg 45%
    01:00 -6°C° 0 mm 5 mps 763 mmHg 45%
    02:00 -7°C° 0 mm 5 mps 763 mmHg 44%
    03:00 -7°C° 0 mm 5 mps 764 mmHg 44%
    04:00 -7°C° 0 mm 5 mps 764 mmHg 43%
    05:00 -7°C° 0 mm 5 mps 764 mmHg 42%
    06:00 -8°C° 0 mm 5 mps 764 mmHg 42%
    07:00 -7°C° 0 mm 5 mps 765 mmHg 38%
    08:00 -7°C° 0 mm 5 mps 765 mmHg 35%
    09:00 -6°C° 0 mm 5 mps 765 mmHg 32%
    10:00 -5°C° 0 mm 5 mps 765 mmHg 30%
    11:00 -4°C° 0 mm 5 mps 765 mmHg 28%
    12:00 -2°C° 0 mm 5 mps 764 mmHg 27%
    13:00 -2°C° 0 mm 5 mps 764 mmHg 28%
    14:00 -2°C° 0 mm 5 mps 764 mmHg 29%
    15:00 -2°C° 0 mm 5 mps 763 mmHg 30%
    16:00 -4°C° 0 mm 5 mps 764 mmHg 34%
    17:00 -4°C° 0 mm 4 mps 764 mmHg 39%
    18:00 -5°C° 0 mm 4 mps 764 mmHg 43%
    19:00 -5°C° 0 mm 4 mps 764 mmHg 46%
    20:00 -5°C° 0 mm 4 mps 765 mmHg 48%
    21:00 -7°C° 0 mm 4 mps 765 mmHg 51%
    22:00 -6°C° 0 mm 3 mps 765 mmHg 53%
    23:00 -6°C° 0 mm 3 mps 765 mmHg 55%

    Day after tomorrow, 26 February, Monday

    Time Temperature Precipitation Wind Pressure Humidity
    00:00 -6°C° 0 mm 3 mps 765 mmHg 57%
    01:00 -6°C° 0 mm 3 mps 765 mmHg 57%
    02:00 -7°C° 0 mm 3 mps 765 mmHg 57%
    03:00 -7°C° 0 mm 3 mps 765 mmHg 57%
    04:00 -7°C° 0 mm 3 mps 765 mmHg 58%
    05:00 -7°C° 0 mm 3 mps 765 mmHg 60%
    06:00 -8°C° 0 mm 4 mps 765 mmHg 62%
    07:00 -8°C° 0 mm 4 mps 765 mmHg 58%
    08:00 -7°C° 0 mm 5 mps 765 mmHg 54%
    09:00 -7°C° 0 mm 5 mps 765 mmHg 50%
    10:00 -6°C° 0 mm 5 mps 765 mmHg 46%
    11:00 -5°C° 0 mm 5 mps 764 mmHg 42%
    12:00 -5°C° 0 mm 5 mps 764 mmHg 38%
    13:00 -4°C° 0 mm 5 mps 763 mmHg 37%
    14:00 -4°C° 0 mm 5 mps 763 mmHg 36%
    15:00 -4°C° 0 mm 5 mps 763 mmHg 35%
    16:00 -5°C° 0 mm 5 mps 763 mmHg 38%
    17:00 -5°C° 0 mm 4 mps 763 mmHg 41%
    18:00 -5°C° 0 mm 3 mps 763 mmHg 44%
    19:00 -6°C° 0 mm 3 mps 763 mmHg 45%
    20:00 -6°C° 0 mm 3 mps 763 mmHg 47%
    21:00 -6°C° 0 mm 3 mps 763 mmHg 48%
    22:00 -6°C° 0 mm 3 mps 763 mmHg 52%
    23:00 -7°C° 0 mm 3 mps 762 mmHg 56%

    27 February, Tuesday

    Time Temperature Precipitation Wind Pressure Humidity
    00:00 -7°C° 0 mm 3 mps 762 mmHg 60%
    01:00 -7°C° 0 mm 3 mps 762 mmHg 64%
    02:00 -7°C° 0 mm 3 mps 761 mmHg 68%
    03:00 -7°C° 0 mm 3 mps 761 mmHg 72%
    04:00 -7°C° 0 mm 3 mps 761 mmHg 73%
    05:00 -6°C° 0 mm 2 mps 761 mmHg 73%
    06:00 -6°C° 0 mm 2 mps 760 mmHg 74%
    07:00 -7°C° 0 mm 3 mps 760 mmHg 68%
    08:00 -6°C° 0 mm 3 mps 760 mmHg 62%
    09:00 -5°C° 0 mm 3 mps 760 mmHg 56%
    10:00 -5°C° 0.1 mm 3 mps 760 mmHg 53%
    11:00 -4°C° 0.1 mm 3 mps 759 mmHg 50%
    12:00 -4°C° 0.1 mm 3 mps 759 mmHg 47%
    13:00 -2°C° 0.1 mm 3 mps 758 mmHg 45%
    14:00 -2°C° 0.1 mm 3 mps 758 mmHg 43%
    15:00 -2°C° 0.1 mm 3 mps 757 mmHg 41%
    16:00 -4°C° 0 mm 3 mps 757 mmHg 42%
    17:00 -4°C° 0 mm 2 mps 758 mmHg 44%
    18:00 -5°C° 0 mm 2 mps 758 mmHg 46%
    19:00 -5°C° 0 mm 2 mps 758 mmHg 45%
    20:00 -5°C° 0 mm 2 mps 758 mmHg 45%
    21:00 -6°C° 0 mm 2 mps 758 mmHg 44%
    22:00 -6°C° 0 mm 2 mps 758 mmHg 44%
    23:00 -7°C° 0 mm 2 mps 758 mmHg 43%

    28 February, Wednesday

    Time Temperature Precipitation Wind Pressure Humidity
    00:00 -7°C° 0 mm 2 mps 758 mmHg 43%
    01:00 -8°C° 0 mm 3 mps 758 mmHg 44%
    02:00 -9°C° 0 mm 3 mps 758 mmHg 45%
    03:00 -9°C° 0 mm 3 mps 758 mmHg 46%
    04:00 -9°C° 0 mm 3 mps 758 mmHg 48%
    05:00 -9°C° 0 mm 3 mps 759 mmHg 49%
    06:00 -10°C° 0 mm 3 mps 759 mmHg 50%
    07:00 -10°C° 0 mm 4 mps 759 mmHg 48%
    08:00 -9°C° 0 mm 4 mps 759 mmHg 45%
    09:00 -10°C° 0 mm 5 mps 759 mmHg 43%
    10:00 -8°C° 0 mm 5 mps 759 mmHg 40%
    11:00 -7°C° 0 mm 5 mps 758 mmHg 37%
    12:00 -6°C° 0 mm 5 mps 758 mmHg 34%
    13:00 -6°C° 0 mm 5 mps 757 mmHg 34%
    14:00 -6°C° 0 mm 5 mps 757 mmHg 33%
    15:00 -5°C° 0 mm 5 mps 756 mmHg 32%
    16:00 -6°C° 0 mm 5 mps 756 mmHg 35%
    17:00 -7°C° 0 mm 5 mps 756 mmHg 38%
    18:00 -7°C° 0 mm 5 mps 756 mmHg 41%
    19:00 -7°C° 0 mm 5 mps 756 mmHg 42%
    20:00 -8°C° 0 mm 6 mps 755 mmHg 42%
    21:00 -8°C° 0 mm 6 mps 755 mmHg 43%
    22:00 -8°C° 0 mm 6 mps 754 mmHg 43%
    23:00 -8°C° 0 mm 6 mps 754 mmHg 43%

    1 March, Thursday

    Time Temperature Precipitation Wind Pressure Humidity
    00:00 -8°C° 0 mm 6 mps 753 mmHg 44%
    01:00 -8°C° 0 mm 6 mps 753 mmHg 44%
    02:00 -9°C° 0 mm 6 mps 753 mmHg 45%
    03:00 -9°C° 0 mm 6 mps 752 mmHg 45%
    04:00 -8°C° 0 mm 6 mps 752 mmHg 46%
    05:00 -8°C° 0 mm 6 mps 751 mmHg 46%
    06:00 -8°C° 0 mm 6 mps 751 mmHg 47%
    07:00 -8°C° 0 mm 6 mps 750 mmHg 45%
    08:00 -7°C° 0 mm 7 mps 750 mmHg 44%
    09:00 -7°C° 0 mm 7 mps 750 mmHg 42%
    10:00 -6°C° 0 mm 7 mps 749 mmHg 41%
    11:00 -4°C° 0 mm 6 mps 749 mmHg 39%
    12:00 -3°C° 0 mm 6 mps 749 mmHg 38%
    13:00 -3°C° 0 mm 6 mps 748 mmHg 41%
    14:00 -3°C° 0 mm 6 mps 748 mmHg 44%
    15:00 -3°C° 0 mm 6 mps 748 mmHg 47%
    16:00 -3°C° 0 mm 6 mps 747 mmHg 48%
    17:00 -3°C° 0 mm 6 mps 747 mmHg 49%
    18:00 -3°C° 0 mm 6 mps 747 mmHg 51%
    19:00 -3°C° 0 mm 6 mps 747 mmHg 50%
    20:00 -4°C° 0 mm 5 mps 747 mmHg 50%
    21:00 -4°C° 0 mm 5 mps 746 mmHg 50%
    22:00 -4°C° 0 mm 5 mps 746 mmHg 51%
    23:00 -4°C° 0 mm 5 mps 745 mmHg 53%
    Show more